Location: Beaurecueil
(43.5122°N, 5.5450°E)
Time: 06:43:56
(UTC+00:00)

Cosmos 1939 Rocket - Pass Details

Date: 22 January 2021
Orbit: 531 x 585 km, 97.4° (Epoch: 06 March)

Event Time Altitude Azimuth Distance (km) Brightness Sun altitude
Rises 05:13:45 0° 35° (NE) 2,722 6.7 -19.7°
Reaches altitude 10° 05:17:24 10° 70° (ENE) 1,808 6.3 -19.0°
Maximum altitude 05:18:38 11° 89° (E) 1,722 6.5 -18.8°
Drops below altitude 10° 05:19:52 10° 108° (ESE) 1,796 6.7 -18.6°
Sets 05:23:26 0° 143° (SE) 2,670 7.1 -18.0°
